Meteo Giornale » Osservazioni meteo Italia » Catania-Fontanarossa

ore: 02:20 - Osservazioni Meteo Catania-Fontanarossa
Lat. 37° 28' N Lon. 15° 3' E Alt. 11 metri s.l.m.

poco_nuvoloso Europe/Rome

16 °C

Poco Nuvoloso

Temp. 24 Ore

16 °C

24 °C

Ovest

7.4 Km/h

Dew point 15 °C

Umidità 93 %

Visibilità  10 Km

Il sole sorge alle ore 06:49

Il sole tramonta alle ore 18:53

Data e Ora Cielo e Fenomeni T °C DP °C Um. % Pres. hPa Vis. km Vento km/h
Oggi h: 02:20 poco_nuvoloso Poco Nuvoloso 16 15 93 1017 10 O 7.4
Oggi h: 01:50 poco_nuvoloso Poco Nuvoloso 16 15 93 1017 10 N 5.5
Oggi h: 01:20 poco_nuvoloso Poco Nuvoloso 17 16 93 1017 10 O/SO 7.4
Oggi h: 00:50 poco_nuvoloso Poco Nuvoloso 17 16 93 1017 10 N 5.5
Oggi h: 00:20 poco_nuvoloso Poco Nuvoloso 18 16 88 1017 10 N 5.5
Ieri h: 23:50 poco_nuvoloso Poco Nuvoloso 19 17 88 1017 10 N 1.8
Ieri h: 23:20 poco_nuvoloso Poco Nuvoloso 20 17 82 1017 10 N 3.7
Ieri h: 22:50 poco_nuvoloso Poco Nuvoloso 20 17 82 1018 10 N 1.8
Ieri h: 22:20 poco_nuvoloso Poco Nuvoloso 20 17 82 1017 10 N 1.8
Ieri h: 21:50 nuvoloso Nuvoloso 21 17 77 1017 10 N 3.7
Ieri h: 21:20 nuvoloso Nuvoloso 21 17 77 1017 10 N 5.5
Ieri h: 20:50 nuvoloso Nuvoloso 21 17 77 1017 10 E 7.4
Ieri h: 20:20 nuvoloso Nuvoloso 20 17 82 1017 10 N 5.5
Ieri h: 19:50 nuvoloso Nuvoloso 21 17 77 1016 10 N 5.5
Ieri h: 19:20 nuvoloso Nuvoloso 21 17 77 1016 10 N 5.5
Ieri h: 18:50 poco_nuvoloso Poco Nuvoloso 21 17 77 1016 10 SE 7.4
Ieri h: 17:50 sereno Sereno 23 16 64 1016 10 E/SE 13
Ieri h: 17:20 sereno Sereno 23 16 64 1016 10 SE 9.3
Ieri h: 16:50 sereno Sereno 24 15 57 1016 10 N 5.5
Ieri h: 16:20 sereno Sereno 24 16 60 1016 10 N 5.5
Ieri h: 15:50 sereno Sereno 23 16 64 1016 10 O 7.4
Ieri h: 15:20 sereno Sereno 22 17 73 1016 10 N 7.4
Ieri h: 14:50 nuvoloso Nuvoloso 21 17 77 1016 10 O/SO 11.1
Ieri h: 14:20 nuvoloso Nuvoloso 21 17 77 1016 10 O 13
Ieri h: 13:50 sereno Sereno 20 17 82 1017 10 O 9.3
Ieri h: 13:20 nuvoloso Nuvoloso 20 17 82 1017 10 O 11.1
Ieri h: 12:50 molto_nuvoloso Molto Nuvoloso 19 17 88 1017 10 O 14.8
Ieri h: 12:20 nuvoloso Nuvoloso 20 17 82 1017 10 N 3.7
Ieri h: 11:50 coperto_pioggia Pioggia Debole 19 18 93 1016 8 E 29.6
Ieri h: 11:20 nuvoloso_temporali Temporale con Pioggia 18 15 82 1018 5 N 11.1
Ieri h: 10:50 nuvoloso_temporali Temporale con Pioggia 20 14 68 1019 5 N/NO 11.1
Ieri h: 10:20 nuvoloso_temporali Temporale con Pioggia 18 16 88 1019 5 O/NO 18.5
Ieri h: 09:50 nuvoloso_temporali Temporale con Pioggia 19 16 82 1018 3 N 11.1
Ieri h: 09:20 nuvoloso_temporali Temporale con Pioggia 18 16 88 1017 3 O/NO 9.3
Ieri h: 08:50 coperto_pioggia Pioggia Temporale nelle Vicinanze 18 15 82 1016 10 N 7.4
Ieri h: 08:20 coperto_pioggia Pioggia Temporale nelle Vicinanze 18 14 77 1017 10 N 5.5
Ieri h: 07:50 coperto_pioggia Pioggia Debole Temporale nelle Vicinanze 18 14 77 1017 10 SO 9.3
Ieri h: 07:20 molto_nuvoloso Molto Nuvoloso 18 14 77 1017 10 S/SO 11.1
Ieri h: 06:50 nuvoloso Nuvoloso 17 14 82 1017 10 SO 9.3
Ieri h: 06:20 poco_nuvoloso Poco Nuvoloso 17 14 82 1018 10 O/SO 11.1
Ieri h: 05:50 sereno Sereno 16 14 87 1018 10 SO 7.4
Ieri h: 05:20 sereno Sereno 17 14 82 1018 10 SO 7.4
Ieri h: 04:50 sereno Sereno 17 14 82 1018 10 O/SO 11.1
Ieri h: 04:20 sereno Sereno 17 14 82 1018 10 O/SO 11.1
Ieri h: 03:50 sereno Sereno 17 14 82 1018 10 SO 7.4
Ieri h: 03:20 sereno Sereno 17 14 82 1019 10 O/SO 9.3
Ieri h: 02:50 sereno Sereno 18 14 77 1019 10 O 7.4